TimeCDT,TemperatureF,Dew PointF,Humidity,Sea Level PressureIn,VisibilityMPH,Wind Direction,Wind SpeedMPH,Gust SpeedMPH,PrecipitationIn,Events,Conditions,WindDirDegrees,DateUTC
12:53 AM,39.9,37.0,89,30.15,10.0,Calm,Calm,-,N/A,,Clear,0,2013-10-22 05:53:00
1:53 AM,37.9,35.1,89,30.14,10.0,Calm,Calm,-,N/A,,Clear,0,2013-10-22 06:53:00
2:53 AM,37.9,35.1,89,30.15,10.0,Calm,Calm,-,N/A,,Clear,0,2013-10-22 07:53:00
3:53 AM,39.9,36.0,86,30.14,10.0,West,3.5,-,N/A,,Clear,280,2013-10-22 08:53:00
4:53 AM,39.0,35.1,86,30.14,10.0,West,4.6,-,N/A,,Clear,270,2013-10-22 09:53:00
5:53 AM,39.0,35.1,86,30.14,10.0,Calm,Calm,-,N/A,,Clear,0,2013-10-22 10:53:00
6:53 AM,39.9,36.0,86,30.15,10.0,West,3.5,-,N/A,,Clear,270,2013-10-22 11:53:00
7:53 AM,39.9,36.0,86,30.15,10.0,WSW,4.6,-,N/A,,Clear,250,2013-10-22 12:53:00
8:53 AM,46.9,39.0,74,30.16,10.0,West,4.6,-,N/A,,Clear,260,2013-10-22 13:53:00
9:53 AM,55.0,39.9,57,30.15,4.0,West,8.1,-,N/A,,Haze,260,2013-10-22 14:53:00
10:53 AM,62.1,39.9,44,30.14,5.0,West,9.2,-,N/A,,Haze,260,2013-10-22 15:53:00
11:53 AM,68.0,41.0,37,30.13,8.0,WSW,9.2,16.1,N/A,,Clear,250,2013-10-22 16:53:00
12:53 PM,72.0,42.1,34,30.10,10.0,WNW,10.4,16.1,N/A,,Clear,290,2013-10-22 17:53:00
1:53 PM,73.9,41.0,30,30.08,10.0,West,10.4,17.3,N/A,,Clear,280,2013-10-22 18:53:00
2:53 PM,77.0,41.0,28,30.04,10.0,NW,9.2,19.6,N/A,,Clear,310,2013-10-22 19:53:00
3:53 PM,78.1,41.0,27,30.03,10.0,Calm,Calm,-,N/A,,Clear,0,2013-10-22 20:53:00
4:53 PM,81.0,39.0,22,30.01,10.0,NW,9.2,-,N/A,,Clear,310,2013-10-22 21:53:00
5:53 PM,78.1,41.0,27,30.01,10.0,North,12.7,-,N/A,,Clear,360,2013-10-22 22:53:00
6:53 PM,68.0,41.0,37,30.03,10.0,NNE,6.9,-,N/A,,Clear,20,2013-10-22 23:53:00
7:53 PM,61.0,43.0,52,30.04,10.0,Calm,Calm,-,N/A,,Clear,0,2013-10-23 00:53:00
8:53 PM,57.0,43.0,59,30.06,10.0,NNE,8.1,-,N/A,,Clear,20,2013-10-23 01:53:00
9:53 PM,55.0,43.0,64,30.07,10.0,Calm,Calm,-,N/A,,Clear,0,2013-10-23 02:53:00
10:53 PM,50.0,44.1,80,30.09,10.0,Calm,Calm,-,N/A,,Clear,0,2013-10-23 03:53:00
11:53 PM,48.0,43.0,83,30.08,10.0,Calm,Calm,-,N/A,,Clear,0,2013-10-23 04:53:00